Flag for U.S.A. Weather past 2 weeks in Vincennes, Indiana, U.S.A.

Now
38 °F

Mostly cloudy.


Feels Like: 29 °F
Forecast: 28 / 42 °F
Wind: 16 mph from North

Location: Lawrenceville-Vincennes International Airport

Current Time: Mar 27, 2015 at 3:46:07 PM

Latest Report: Mar 27, 2015 at 2:53 PM


Visibility: 10 mi

Pressure: 30.12 "Hg

Humidity: 51%

Dew point: 21 °F

Location of VincennesLocation

Historic Weather in Vincennes — Graph

°F

Vincennes temperature yesterday

Maximum temperature yesterday: 48 °F (at 12:53 AM)
Minimum temperature yesterday: 37 °F (at 11:53 PM)
Average temperature yesterday: 43 °F

Past Weeks' High & Low Weather Summary

 TemperatureHumidityPressure
High76 °F (Mar 16, 4:53 PM)100% (Mar 13, 9:53 AM)30.38 "Hg (Mar 13, 9:53 AM)
Low30 °F (Mar 18, 7:53 AM)25% (Mar 18, 4:53 PM)29.87 "Hg (Mar 25, 3:53 AM)
Average48 °F68%30.13 "Hg
* Reported Mar 12 2:53 PM — Mar 27 2:53 PM, Vincennes, Weather by CustomWeather, © 2015

Note: Actual official high and low records may vary slightly from our data, if they occured in-between our weather recording intervals... More about our weather records

Advertising

Vincennes weather history for previous 24 hours

 ConditionsComfort  
Time TempWeatherWind HumidityBarometerVisibility
2:53 PM
Fri, Mar 27
38 °FMostly cloudy.16 mph51%30.12 "Hg10 mi
1:53 PM37 °FMostly cloudy.21 mph60%30.13 "Hg10 mi
12:53 PM36 °FLight snow. More clouds than sun.15 mph70%30.13 "Hg9 mi
11:53 AM38 °FMostly cloudy.14 mph63%30.12 "Hg10 mi
10:53 AM36 °FMostly cloudy.14 mph67%30.11 "Hg10 mi
9:53 AM36 °FOvercast.12 mph75%30.09 "Hg10 mi
8:53 AM34 °FScattered clouds.12 mph76%30.08 "Hg10 mi
7:53 AM34 °FOvercast.7 mph79%30.06 "Hg10 mi
6:53 AM35 °FMostly cloudy.9 mph75%30.05 "Hg10 mi
5:53 AM34 °FPassing clouds.10 mph82%30.04 "Hg10 mi
4:53 AM33 °FPassing clouds.9 mph85%30.04 "Hg10 mi
3:53 AM32 °FClear.7 mph88%30.03 "Hg10 mi
2:53 AM32 °FClear.5 mph88%30.03 "Hg10 mi
1:53 AM33 °FClear.3 mph92%30.03 "Hg8 mi
12:53 AM36 °FClear.3 mph82%30.04 "Hg10 mi
11:53 PM
Thu, Mar 26
37 °FClear.No wind82%30.04 "Hg10 mi
10:53 PM38 °FClear.5 mph76%30.04 "Hg10 mi
9:53 PM39 °FClear.3 mph76%30.03 "Hg10 mi
8:53 PM42 °FScattered clouds.9 mph68%30.02 "Hg10 mi
7:53 PM44 °FPassing clouds.10 mph65%30.02 "Hg10 mi
6:53 PM47 °FSunny.9 mph61%30.01 "Hg10 mi
5:53 PM47 °FPartly sunny.14 mph61%29.99 "Hg10 mi
4:53 PM44 °FPartly sunny.12 mph65%30.01 "Hg10 mi
3:53 PM43 °FOvercast.10 mph68%30.01 "Hg10 mi
Weather by CustomWeather, © 2015

See weather overviewHow to use our weather pages